Year,Month,Day,Hour,Minute,Value (Times are PST for temperature in C)
2018,08,18,00,00,11.80
2018,08,18,00,01,11.70
2018,08,18,00,02,11.70
2018,08,18,00,03,11.70
2018,08,18,00,04,11.70
2018,08,18,00,05,11.70
2018,08,18,00,06,11.70
2018,08,18,00,07,11.70
2018,08,18,00,08,11.70
2018,08,18,00,09,11.70
2018,08,18,00,10,11.70
2018,08,18,00,11,11.70
2018,08,18,00,12,11.70
2018,08,18,00,13,11.60
2018,08,18,00,14,11.60
2018,08,18,00,15,11.60
2018,08,18,00,16,11.60
2018,08,18,00,17,11.60
2018,08,18,00,18,11.60
2018,08,18,00,19,11.60
2018,08,18,00,20,11.60
2018,08,18,00,21,11.60
2018,08,18,00,22,11.60
2018,08,18,00,23,11.60
2018,08,18,00,24,11.60
2018,08,18,00,25,11.60
2018,08,18,00,26,11.60
2018,08,18,00,27,11.60
2018,08,18,00,28,11.50
2018,08,18,00,29,11.50
2018,08,18,00,30,11.50
2018,08,18,00,31,11.50
2018,08,18,00,32,11.50
2018,08,18,00,33,11.50
2018,08,18,00,34,11.40
2018,08,18,00,35,11.40
2018,08,18,00,36,11.40
2018,08,18,00,37,11.40
2018,08,18,00,38,11.40
2018,08,18,00,39,11.40
2018,08,18,00,40,11.40
2018,08,18,00,41,11.40
2018,08,18,00,42,11.40
2018,08,18,00,43,11.30
2018,08,18,00,44,11.30
2018,08,18,00,45,11.30
2018,08,18,00,46,11.30
2018,08,18,00,47,11.30
2018,08,18,00,48,11.30
2018,08,18,00,49,11.30
2018,08,18,00,50,11.30
2018,08,18,00,51,11.30
2018,08,18,00,52,11.30
2018,08,18,00,53,11.30
2018,08,18,00,54,11.30
2018,08,18,00,55,11.30
2018,08,18,00,56,11.30
2018,08,18,00,57,11.30
2018,08,18,00,58,11.30
2018,08,18,00,59,11.30
2018,08,18,01,00,11.30
2018,08,18,01,01,11.30
2018,08,18,01,02,11.30
2018,08,18,01,03,11.30
2018,08,18,01,04,11.30
2018,08,18,01,05,11.20
2018,08,18,01,06,11.20
2018,08,18,01,07,11.20
2018,08,18,01,08,11.20
2018,08,18,01,09,11.20
2018,08,18,01,10,11.20
2018,08,18,01,11,11.20
2018,08,18,01,12,11.20
2018,08,18,01,13,11.20
2018,08,18,01,14,11.20
2018,08,18,01,15,11.20
2018,08,18,01,16,11.20
2018,08,18,01,17,11.20
2018,08,18,01,18,11.20
2018,08,18,01,19,11.20
2018,08,18,01,20,11.20
2018,08,18,01,21,11.20
2018,08,18,01,22,11.20
2018,08,18,01,23,11.20
2018,08,18,01,24,11.20
2018,08,18,01,25,11.20
2018,08,18,01,26,11.20
2018,08,18,01,27,11.20
2018,08,18,01,28,11.10
2018,08,18,01,29,11.10
2018,08,18,01,30,11.10
2018,08,18,01,31,11.10
2018,08,18,01,32,11.10
2018,08,18,01,33,11.10
2018,08,18,01,34,11.10
2018,08,18,01,35,11.10
2018,08,18,01,36,11.10
2018,08,18,01,37,11.10
2018,08,18,01,38,11.10
2018,08,18,01,39,11.10
2018,08,18,01,40,11.00
2018,08,18,01,41,11.00
2018,08,18,01,42,11.00
2018,08,18,01,43,11.00
2018,08,18,01,44,11.00
2018,08,18,01,45,10.90
2018,08,18,01,46,10.90
2018,08,18,01,47,10.90
2018,08,18,01,48,10.90
2018,08,18,01,49,10.90
2018,08,18,01,50,10.90
2018,08,18,01,51,10.90
2018,08,18,01,52,10.90
2018,08,18,01,53,10.90
2018,08,18,01,54,10.90
2018,08,18,01,55,10.90
2018,08,18,01,56,10.90
2018,08,18,01,57,10.80
2018,08,18,01,58,10.80
2018,08,18,01,59,10.80
2018,08,18,02,00,10.80
2018,08,18,02,01,10.80
2018,08,18,02,02,10.80
2018,08,18,02,03,10.80
2018,08,18,02,04,10.80
2018,08,18,02,05,10.70
2018,08,18,02,06,10.70
2018,08,18,02,07,10.70
2018,08,18,02,08,10.70
2018,08,18,02,09,10.70
2018,08,18,02,10,10.70
2018,08,18,02,11,10.70
2018,08,18,02,12,10.70
2018,08,18,02,13,10.70
2018,08,18,02,14,10.80
2018,08,18,02,15,10.80
2018,08,18,02,16,10.80
2018,08,18,02,17,10.80
2018,08,18,02,18,10.80
2018,08,18,02,19,10.80
2018,08,18,02,20,10.80
2018,08,18,02,21,10.80
2018,08,18,02,22,10.80
2018,08,18,02,23,10.80
2018,08,18,02,24,10.80
2018,08,18,02,25,10.80
2018,08,18,02,26,10.70
2018,08,18,02,27,10.70
2018,08,18,02,28,10.70
2018,08,18,02,29,10.70
2018,08,18,02,30,10.70
2018,08,18,02,31,10.70
2018,08,18,02,32,10.70
2018,08,18,02,33,10.60
2018,08,18,02,34,10.60
2018,08,18,02,35,10.60
2018,08,18,02,36,10.60
2018,08,18,02,37,10.60
2018,08,18,02,38,10.60
2018,08,18,02,39,10.60
2018,08,18,02,40,10.50
2018,08,18,02,41,10.50
2018,08,18,02,42,10.50
2018,08,18,02,43,10.50
2018,08,18,02,44,10.50
2018,08,18,02,45,10.50
2018,08,18,02,46,10.40
2018,08,18,02,47,10.40
2018,08,18,02,48,10.40
2018,08,18,02,49,10.40
2018,08,18,02,50,10.40
2018,08,18,02,51,10.40
2018,08,18,02,52,10.40
2018,08,18,02,53,10.40
2018,08,18,02,54,10.40
2018,08,18,02,55,10.40
2018,08,18,02,56,10.40
2018,08,18,02,57,10.40
2018,08,18,02,58,10.40
2018,08,18,02,59,10.40
2018,08,18,03,00,10.40
2018,08,18,03,01,10.40
2018,08,18,03,02,10.40
2018,08,18,03,03,10.40
2018,08,18,03,04,10.40
2018,08,18,03,05,10.40
2018,08,18,03,06,10.40
2018,08,18,03,07,10.40
2018,08,18,03,08,10.40
2018,08,18,03,09,10.30
2018,08,18,03,10,10.30
2018,08,18,03,11,10.30
2018,08,18,03,12,10.30
2018,08,18,03,13,10.30
2018,08,18,03,14,10.30
2018,08,18,03,15,10.30
2018,08,18,03,16,10.30
2018,08,18,03,17,10.30
2018,08,18,03,18,10.30
2018,08,18,03,19,10.30
2018,08,18,03,20,10.30
2018,08,18,03,21,10.30
2018,08,18,03,22,10.30
2018,08,18,03,23,10.30
2018,08,18,03,24,10.30
2018,08,18,03,25,10.30
2018,08,18,03,26,10.30
2018,08,18,03,27,10.30
2018,08,18,03,28,10.30
2018,08,18,03,29,10.30
2018,08,18,03,30,10.30
2018,08,18,03,31,10.30
2018,08,18,03,32,10.30
2018,08,18,03,33,10.20
2018,08,18,03,34,10.20
2018,08,18,03,35,10.20
2018,08,18,03,36,10.20
2018,08,18,03,37,10.20
2018,08,18,03,38,10.20
2018,08,18,03,39,10.20
2018,08,18,03,40,10.20
2018,08,18,03,41,10.20
2018,08,18,03,42,10.20
2018,08,18,03,43,10.20
2018,08,18,03,44,10.20
2018,08,18,03,45,10.20
2018,08,18,03,46,10.20
2018,08,18,03,47,10.20
2018,08,18,03,48,10.20
2018,08,18,03,49,10.20
2018,08,18,03,50,10.10
2018,08,18,03,51,10.10
2018,08,18,03,52,10.10
2018,08,18,03,53,10.10
2018,08,18,03,54,10.10
2018,08,18,03,55,10.10
2018,08,18,03,56,10.10
2018,08,18,03,57,10.10
2018,08,18,03,58,10.10
2018,08,18,03,59,10.10
2018,08,18,04,00,10.00
2018,08,18,04,01,10.00
2018,08,18,04,02,10.00
2018,08,18,04,03,10.00
2018,08,18,04,04,10.00
2018,08,18,04,05,10.00
2018,08,18,04,06,10.00
2018,08,18,04,07,10.00
2018,08,18,04,08,10.00
2018,08,18,04,09,10.00
2018,08,18,04,10,9.90
2018,08,18,04,11,9.90
2018,08,18,04,12,9.90
2018,08,18,04,13,10.00
2018,08,18,04,14,10.00
2018,08,18,04,15,10.00
2018,08,18,04,16,10.00
2018,08,18,04,17,10.00
2018,08,18,04,18,10.10
2018,08,18,04,19,10.10
2018,08,18,04,20,10.10
2018,08,18,04,21,10.10
2018,08,18,04,22,10.10
2018,08,18,04,23,10.10
2018,08,18,04,24,10.10
2018,08,18,04,25,10.10
2018,08,18,04,26,10.10
2018,08,18,04,27,10.10
2018,08,18,04,28,10.10
2018,08,18,04,29,10.10
2018,08,18,04,30,10.10
2018,08,18,04,31,10.20
2018,08,18,04,32,10.10
2018,08,18,04,33,10.10
2018,08,18,04,34,10.20
2018,08,18,04,35,10.20
2018,08,18,04,36,10.20
2018,08,18,04,37,10.10
2018,08,18,04,38,10.10
2018,08,18,04,39,10.10
2018,08,18,04,40,10.10
2018,08,18,04,41,10.10
2018,08,18,04,42,10.10
2018,08,18,04,43,10.10
2018,08,18,04,44,10.10
2018,08,18,04,45,10.10
2018,08,18,04,46,10.00
2018,08,18,04,47,10.00
2018,08,18,04,48,10.00
2018,08,18,04,49,9.90
2018,08,18,04,50,9.90
2018,08,18,04,51,9.90
2018,08,18,04,52,9.90
2018,08,18,04,53,9.90
2018,08,18,04,54,9.80
2018,08,18,04,55,9.90
2018,08,18,04,56,9.80
2018,08,18,04,57,9.80
2018,08,18,04,58,9.80
2018,08,18,04,59,9.80
2018,08,18,05,00,9.80
2018,08,18,05,01,9.80
2018,08,18,05,02,9.80
2018,08,18,05,03,9.80
2018,08,18,05,04,9.80
2018,08,18,05,05,9.80
2018,08,18,05,06,9.80
2018,08,18,05,07,9.80
2018,08,18,05,08,9.80
2018,08,18,05,09,9.80
2018,08,18,05,10,9.80
2018,08,18,05,11,9.80
2018,08,18,05,12,9.80
2018,08,18,05,13,9.80
2018,08,18,05,14,9.80
2018,08,18,05,15,9.80
2018,08,18,05,16,9.80
2018,08,18,05,17,9.80
2018,08,18,05,18,9.80
2018,08,18,05,19,9.80
2018,08,18,05,20,9.80
2018,08,18,05,21,9.80
2018,08,18,05,22,9.80
2018,08,18,05,23,9.80
2018,08,18,05,24,9.80
2018,08,18,05,25,9.70
2018,08,18,05,26,9.70
2018,08,18,05,27,9.70
2018,08,18,05,28,9.70
2018,08,18,05,29,9.70
2018,08,18,05,30,9.70
2018,08,18,05,31,9.70
2018,08,18,05,32,9.70
2018,08,18,05,33,9.70
2018,08,18,05,34,9.70
2018,08,18,05,35,9.70
2018,08,18,05,36,9.60
2018,08,18,05,37,9.60
2018,08,18,05,38,9.60
2018,08,18,05,39,9.60
2018,08,18,05,40,9.60
2018,08,18,05,41,9.60
2018,08,18,05,42,9.60
2018,08,18,05,43,9.60
2018,08,18,05,44,9.60
2018,08,18,05,45,9.60
2018,08,18,05,46,9.60
2018,08,18,05,47,9.50
2018,08,18,05,48,9.50
2018,08,18,05,49,9.50
2018,08,18,05,50,9.50
2018,08,18,05,51,9.50
2018,08,18,05,52,9.50
2018,08,18,05,53,9.50
2018,08,18,05,54,9.50
2018,08,18,05,55,9.50
2018,08,18,05,56,9.50
2018,08,18,05,57,9.50
2018,08,18,05,58,9.50
2018,08,18,05,59,9.50
2018,08,18,06,00,9.50
2018,08,18,06,01,9.40
2018,08,18,06,02,9.40
2018,08,18,06,03,9.40
2018,08,18,06,04,9.40
2018,08,18,06,05,9.40
2018,08,18,06,06,9.40
2018,08,18,06,07,9.40
2018,08,18,06,08,9.40
2018,08,18,06,09,9.40
2018,08,18,06,10,9.40
2018,08,18,06,11,9.40
2018,08,18,06,12,9.40
2018,08,18,06,13,9.40
2018,08,18,06,14,9.40
2018,08,18,06,15,9.40
2018,08,18,06,16,9.30
2018,08,18,06,17,9.30
2018,08,18,06,18,9.30
2018,08,18,06,19,9.30
2018,08,18,06,20,9.30
2018,08,18,06,21,9.30
2018,08,18,06,22,9.40
2018,08,18,06,23,9.40
2018,08,18,06,24,9.40
2018,08,18,06,25,9.40
2018,08,18,06,26,9.40
2018,08,18,06,27,9.30
2018,08,18,06,28,9.30
2018,08,18,06,29,9.30
2018,08,18,06,30,9.30
2018,08,18,06,31,9.30
2018,08,18,06,32,9.40
2018,08,18,06,33,9.40
2018,08,18,06,34,9.40
2018,08,18,06,35,9.40
2018,08,18,06,36,9.40
2018,08,18,06,37,9.40
2018,08,18,06,38,9.50
2018,08,18,06,39,9.50
2018,08,18,06,40,9.50
2018,08,18,06,41,9.50
2018,08,18,06,42,9.50
2018,08,18,06,43,9.50
2018,08,18,06,44,9.50
2018,08,18,06,45,9.50
2018,08,18,06,46,9.50
2018,08,18,06,47,9.50
2018,08,18,06,48,9.50
2018,08,18,06,49,9.50
2018,08,18,06,50,9.50
2018,08,18,06,51,9.60
2018,08,18,06,52,9.60
2018,08,18,06,53,9.60
2018,08,18,06,54,9.60
2018,08,18,06,55,9.60
2018,08,18,06,56,9.70
2018,08,18,06,57,9.70
2018,08,18,06,58,9.70
2018,08,18,06,59,9.70
2018,08,18,07,00,9.80
2018,08,18,07,01,9.80
2018,08,18,07,02,9.80
2018,08,18,07,03,9.80
2018,08,18,07,04,9.80
2018,08,18,07,05,9.80
2018,08,18,07,06,9.90
2018,08,18,07,07,9.90
2018,08,18,07,08,9.90
2018,08,18,07,09,9.90
2018,08,18,07,10,9.90
2018,08,18,07,11,10.00
2018,08,18,07,12,10.00
2018,08,18,07,13,10.00
2018,08,18,07,14,10.10
2018,08,18,07,15,10.10
2018,08,18,07,16,10.10
2018,08,18,07,17,10.20
2018,08,18,07,18,10.30
2018,08,18,07,19,10.30
2018,08,18,07,20,10.40
2018,08,18,07,21,10.50
2018,08,18,07,22,10.50
2018,08,18,07,23,10.60
2018,08,18,07,24,10.60
2018,08,18,07,25,10.60
2018,08,18,07,26,10.70
2018,08,18,07,27,10.70
2018,08,18,07,28,10.70
2018,08,18,07,29,10.70
2018,08,18,07,30,10.70
2018,08,18,07,31,10.80
2018,08,18,07,32,10.80
2018,08,18,07,33,10.80
2018,08,18,07,34,10.80
2018,08,18,07,35,10.80
2018,08,18,07,36,10.80
2018,08,18,07,37,10.90
2018,08,18,07,38,10.90
2018,08,18,07,39,10.90
2018,08,18,07,40,10.90
2018,08,18,07,41,11.00
2018,08,18,07,42,11.00
2018,08,18,07,43,11.10
2018,08,18,07,44,11.10
2018,08,18,07,45,11.10
2018,08,18,07,46,11.20
2018,08,18,07,47,11.20
2018,08,18,07,48,11.20
2018,08,18,07,49,11.30
2018,08,18,07,50,11.30
2018,08,18,07,51,11.40
2018,08,18,07,52,11.40
2018,08,18,07,53,11.50
2018,08,18,07,54,11.60
2018,08,18,07,55,11.60
2018,08,18,07,56,11.60
2018,08,18,07,57,11.70
2018,08,18,07,58,11.70
2018,08,18,07,59,11.80
2018,08,18,08,00,11.80
2018,08,18,08,01,11.80
2018,08,18,08,02,11.90
2018,08,18,08,03,11.90
2018,08,18,08,04,11.90
2018,08,18,08,05,12.00
2018,08,18,08,06,12.10
2018,08,18,08,07,12.20
2018,08,18,08,08,12.40
2018,08,18,08,09,12.40
2018,08,18,08,10,12.50
2018,08,18,08,11,12.50
2018,08,18,08,12,12.60
2018,08,18,08,13,12.80
2018,08,18,08,14,12.90
2018,08,18,08,15,13.00
2018,08,18,08,16,13.20
2018,08,18,08,17,13.30
2018,08,18,08,18,13.40
2018,08,18,08,19,13.50
2018,08,18,08,20,13.60
2018,08,18,08,21,13.60
2018,08,18,08,22,13.60
2018,08,18,08,23,13.70
2018,08,18,08,24,13.70
2018,08,18,08,25,13.70
2018,08,18,08,26,13.80
2018,08,18,08,27,13.80
2018,08,18,08,28,13.90
2018,08,18,08,29,14.00
2018,08,18,08,30,14.10
2018,08,18,08,31,14.30
2018,08,18,08,32,14.40
2018,08,18,08,33,14.50
2018,08,18,08,34,14.60
2018,08,18,08,35,14.60
2018,08,18,08,36,14.70
2018,08,18,08,37,14.70
2018,08,18,08,38,14.70
2018,08,18,08,39,14.70
2018,08,18,08,40,14.70
2018,08,18,08,41,14.70
2018,08,18,08,42,14.60
2018,08,18,08,43,14.60
2018,08,18,08,44,14.60
2018,08,18,08,45,14.70
2018,08,18,08,46,14.70
2018,08,18,08,47,14.70
2018,08,18,08,48,14.70
2018,08,18,08,49,14.80
2018,08,18,08,50,14.80
2018,08,18,08,51,14.80
2018,08,18,08,52,14.80
2018,08,18,08,53,14.80
2018,08,18,08,54,14.80
2018,08,18,08,55,14.80
2018,08,18,08,56,14.80
2018,08,18,08,57,14.90
2018,08,18,08,58,14.90
2018,08,18,08,59,14.90
2018,08,18,09,00,15.00
2018,08,18,09,01,15.00
2018,08,18,09,02,15.00
2018,08,18,09,03,15.10
2018,08,18,09,04,15.10
2018,08,18,09,05,15.10
2018,08,18,09,06,15.10
2018,08,18,09,07,15.10
2018,08,18,09,08,15.20
2018,08,18,09,09,15.10
2018,08,18,09,10,15.10
2018,08,18,09,11,15.10
2018,08,18,09,12,15.10
2018,08,18,09,13,15.10
2018,08,18,09,14,15.10
2018,08,18,09,15,15.10
2018,08,18,09,16,15.20
2018,08,18,09,17,15.20
2018,08,18,09,18,15.20
2018,08,18,09,19,15.20
2018,08,18,09,20,15.30
2018,08,18,09,21,15.30
2018,08,18,09,22,15.40
2018,08,18,09,23,15.50
2018,08,18,09,24,15.60
2018,08,18,09,25,15.70
2018,08,18,09,26,15.80
2018,08,18,09,27,15.80
2018,08,18,09,28,15.90
2018,08,18,09,29,15.90
2018,08,18,09,30,16.00
2018,08,18,09,31,16.00
2018,08,18,09,32,16.10
2018,08,18,09,33,16.20
2018,08,18,09,34,16.30
2018,08,18,09,35,16.40
2018,08,18,09,36,16.40
2018,08,18,09,37,16.40
2018,08,18,09,38,16.50
2018,08,18,09,39,16.50
2018,08,18,09,40,16.50
2018,08,18,09,41,16.50
2018,08,18,09,42,16.50
2018,08,18,09,43,16.40
2018,08,18,09,44,16.40
2018,08,18,09,45,16.40
2018,08,18,09,46,16.40
2018,08,18,09,47,16.40
2018,08,18,09,48,16.40
2018,08,18,09,49,16.50
2018,08,18,09,50,16.50
2018,08,18,09,51,16.60
2018,08,18,09,52,16.60
2018,08,18,09,53,16.60
2018,08,18,09,54,16.60
2018,08,18,09,55,16.70
2018,08,18,09,56,16.70
2018,08,18,09,57,16.80
2018,08,18,09,58,16.90
2018,08,18,09,59,17.00
2018,08,18,10,00,17.00
2018,08,18,10,01,17.00
2018,08,18,10,02,17.00
2018,08,18,10,03,17.00
2018,08,18,10,04,17.00
2018,08,18,10,05,17.00
2018,08,18,10,06,17.10
2018,08,18,10,07,17.10
2018,08,18,10,08,17.10
2018,08,18,10,09,17.10
2018,08,18,10,10,17.20
2018,08,18,10,11,17.20
2018,08,18,10,12,17.20
2018,08,18,10,13,17.30
2018,08,18,10,14,17.40
2018,08,18,10,15,17.50
2018,08,18,10,16,17.60
2018,08,18,10,17,17.80
2018,08,18,10,18,17.90
2018,08,18,10,19,18.00
2018,08,18,10,20,18.20
2018,08,18,10,21,18.30
2018,08,18,10,22,18.50
2018,08,18,10,23,18.70
2018,08,18,10,24,18.80
2018,08,18,10,25,18.90
2018,08,18,10,26,19.00
2018,08,18,10,27,19.00
2018,08,18,10,28,19.00
2018,08,18,10,29,19.00
2018,08,18,10,30,19.00
2018,08,18,10,31,18.90
2018,08,18,10,32,18.90
2018,08,18,10,33,19.00
2018,08,18,10,34,19.00
2018,08,18,10,35,19.20
2018,08,18,10,36,19.30
2018,08,18,10,37,19.30
2018,08,18,10,38,19.30
2018,08,18,10,39,19.40
2018,08,18,10,40,19.40
2018,08,18,10,41,19.50
2018,08,18,10,42,19.60
2018,08,18,10,43,19.70
2018,08,18,10,44,19.70
2018,08,18,10,45,19.70
2018,08,18,10,46,19.70
2018,08,18,10,47,19.70
2018,08,18,10,48,19.70
2018,08,18,10,49,19.70
2018,08,18,10,50,19.70
2018,08,18,10,51,19.60
2018,08,18,10,52,19.40
2018,08,18,10,53,19.20
2018,08,18,10,54,19.10
2018,08,18,10,55,19.10
2018,08,18,10,56,19.10
2018,08,18,10,57,19.10
2018,08,18,10,58,19.10
2018,08,18,10,59,19.10
2018,08,18,11,00,19.20
2018,08,18,11,01,19.30
2018,08,18,11,02,19.20
2018,08,18,11,03,19.10
2018,08,18,11,04,19.00
2018,08,18,11,05,18.80
2018,08,18,11,06,18.70
2018,08,18,11,07,18.60
2018,08,18,11,08,18.60
2018,08,18,11,09,18.50
2018,08,18,11,10,18.40
2018,08,18,11,11,18.30
2018,08,18,11,12,18.30
2018,08,18,11,13,18.20
2018,08,18,11,14,18.20
2018,08,18,11,15,18.20
2018,08,18,11,16,18.20
2018,08,18,11,17,18.20
2018,08,18,11,18,18.20
2018,08,18,11,19,18.20
2018,08,18,11,20,18.20
2018,08,18,11,21,18.20
2018,08,18,11,22,18.20
2018,08,18,11,23,18.30
2018,08,18,11,24,18.30
2018,08,18,11,25,18.30
2018,08,18,11,26,18.40
2018,08,18,11,27,18.40
2018,08,18,11,28,18.30
2018,08,18,11,29,18.30
2018,08,18,11,30,18.30
2018,08,18,11,31,18.30
2018,08,18,11,32,18.20
2018,08,18,11,33,18.10
2018,08,18,11,34,18.00
2018,08,18,11,35,17.90
2018,08,18,11,36,17.80
2018,08,18,11,37,17.80
2018,08,18,11,38,17.70
2018,08,18,11,39,17.70
2018,08,18,11,40,17.70
2018,08,18,11,41,17.70
2018,08,18,11,42,17.70
2018,08,18,11,43,17.70
2018,08,18,11,44,17.60
2018,08,18,11,45,17.60
2018,08,18,11,46,17.50
2018,08,18,11,47,17.50
2018,08,18,11,48,17.40
2018,08,18,11,49,17.30
2018,08,18,11,50,17.10
2018,08,18,11,51,17.10
2018,08,18,11,52,17.10
2018,08,18,11,53,17.00
2018,08,18,11,54,17.00
2018,08,18,11,55,16.90
2018,08,18,11,56,16.80
2018,08,18,11,57,16.80
2018,08,18,11,58,16.80
2018,08,18,11,59,16.90
2018,08,18,12,00,16.80
2018,08,18,12,01,16.80
2018,08,18,12,02,16.80
2018,08,18,12,03,16.90
2018,08,18,12,04,17.00
2018,08,18,12,05,17.00
2018,08,18,12,06,17.00
2018,08,18,12,07,16.90
2018,08,18,12,08,17.00
2018,08,18,12,09,17.10
2018,08,18,12,10,17.10
2018,08,18,12,11,17.30
2018,08,18,12,12,17.40
2018,08,18,12,13,17.50
2018,08,18,12,14,17.70
2018,08,18,12,15,17.90
2018,08,18,12,16,18.00
2018,08,18,12,17,18.00
2018,08,18,12,18,18.10
2018,08,18,12,19,18.20
2018,08,18,12,20,18.40
2018,08,18,12,21,18.60
2018,08,18,12,22,18.70
2018,08,18,12,23,18.80
2018,08,18,12,24,18.80
2018,08,18,12,25,18.80
2018,08,18,12,26,18.80
2018,08,18,12,27,18.80
2018,08,18,12,28,18.90
2018,08,18,12,29,19.00
2018,08,18,12,30,19.10
2018,08,18,12,31,19.20
2018,08,18,12,32,19.30
2018,08,18,12,33,19.30
2018,08,18,12,34,19.30
2018,08,18,12,35,19.40
2018,08,18,12,36,19.50
2018,08,18,12,37,19.60
2018,08,18,12,38,19.50
2018,08,18,12,39,19.40
2018,08,18,12,40,19.30
2018,08,18,12,41,19.30
2018,08,18,12,42,19.40
2018,08,18,12,43,19.40
2018,08,18,12,44,19.40
2018,08,18,12,45,19.40
2018,08,18,12,46,19.40
2018,08,18,12,47,19.50
2018,08,18,12,48,19.60
2018,08,18,12,49,19.70
2018,08,18,12,50,19.80
2018,08,18,12,51,19.80
2018,08,18,12,52,19.90
2018,08,18,12,53,20.00
2018,08,18,12,54,20.10
2018,08,18,12,55,20.20
2018,08,18,12,56,20.20
2018,08,18,12,57,20.20
2018,08,18,12,58,20.20
2018,08,18,12,59,20.10
2018,08,18,13,00,20.10
2018,08,18,13,01,20.00
2018,08,18,13,02,19.90
2018,08,18,13,03,19.90
2018,08,18,13,04,19.80
2018,08,18,13,05,19.80
2018,08,18,13,06,19.80
2018,08,18,13,07,19.70
2018,08,18,13,08,19.70
2018,08,18,13,09,19.80
2018,08,18,13,10,19.80
2018,08,18,13,11,20.00
2018,08,18,13,12,20.10
2018,08,18,13,13,20.20
2018,08,18,13,14,20.30
2018,08,18,13,15,20.30
2018,08,18,13,16,20.30
2018,08,18,13,17,20.30
2018,08,18,13,18,20.20
2018,08,18,13,19,20.20
2018,08,18,13,20,20.20
2018,08,18,13,21,20.10
2018,08,18,13,22,20.10
2018,08,18,13,23,20.00
2018,08,18,13,24,19.90
2018,08,18,13,25,19.70
2018,08,18,13,26,19.50
2018,08,18,13,27,19.50
2018,08,18,13,28,19.50
2018,08,18,13,29,19.50
2018,08,18,13,30,19.50
2018,08,18,13,31,19.50
2018,08,18,13,32,19.40
2018,08,18,13,33,19.40
2018,08,18,13,34,19.30
2018,08,18,13,35,19.20
2018,08,18,13,36,19.10
2018,08,18,13,37,19.00
2018,08,18,13,38,18.90
2018,08,18,13,39,18.90
2018,08,18,13,40,18.80
2018,08,18,13,41,18.70
2018,08,18,13,42,18.60
2018,08,18,13,43,18.60
2018,08,18,13,44,18.60
2018,08,18,13,45,18.50
2018,08,18,13,46,18.50
2018,08,18,13,47,18.50
2018,08,18,13,48,18.50
2018,08,18,13,49,18.60
2018,08,18,13,50,18.70
2018,08,18,13,51,18.70
2018,08,18,13,52,18.70
2018,08,18,13,53,18.80
2018,08,18,13,54,18.80
2018,08,18,13,55,18.80
2018,08,18,13,56,18.80
2018,08,18,13,57,19.00
2018,08,18,13,58,19.00
2018,08,18,13,59,18.90
2018,08,18,14,00,18.80
2018,08,18,14,01,18.80
2018,08,18,14,02,18.80
2018,08,18,14,03,18.80
2018,08,18,14,04,18.80
2018,08,18,14,05,18.90
2018,08,18,14,06,18.90
2018,08,18,14,07,18.90
2018,08,18,14,08,18.90
2018,08,18,14,09,18.80
2018,08,18,14,10,18.70
2018,08,18,14,11,18.50
2018,08,18,14,12,18.40
2018,08,18,14,13,18.30
2018,08,18,14,14,18.30
2018,08,18,14,15,18.20
2018,08,18,14,16,18.10
2018,08,18,14,17,18.00
2018,08,18,14,18,17.90
2018,08,18,14,19,17.80
2018,08,18,14,20,17.80
2018,08,18,14,21,17.80
2018,08,18,14,22,17.90
2018,08,18,14,23,18.10
2018,08,18,14,24,18.30
2018,08,18,14,25,18.50
2018,08,18,14,26,18.60
2018,08,18,14,27,18.80
2018,08,18,14,28,18.90
2018,08,18,14,29,19.00
2018,08,18,14,30,19.00
2018,08,18,14,31,19.10
2018,08,18,14,32,19.20
2018,08,18,14,33,19.30
2018,08,18,14,34,19.30
2018,08,18,14,35,19.20
2018,08,18,14,36,19.30
2018,08,18,14,37,19.30
2018,08,18,14,38,19.30
2018,08,18,14,39,19.20
2018,08,18,14,40,19.20
2018,08,18,14,41,19.20
2018,08,18,14,42,19.30
2018,08,18,14,43,19.30
2018,08,18,14,44,19.20
2018,08,18,14,45,19.20
2018,08,18,14,46,19.30
2018,08,18,14,47,19.40
2018,08,18,14,48,19.50
2018,08,18,14,49,19.50
2018,08,18,14,50,19.50
2018,08,18,14,51,19.50
2018,08,18,14,52,19.50
2018,08,18,14,53,19.50
2018,08,18,14,54,19.60
2018,08,18,14,55,19.60
2018,08,18,14,56,19.60
2018,08,18,14,57,19.50
2018,08,18,14,58,19.40
2018,08,18,14,59,19.40
2018,08,18,15,00,19.50
2018,08,18,15,01,19.60
2018,08,18,15,02,19.80
2018,08,18,15,03,19.80
2018,08,18,15,04,19.80
2018,08,18,15,05,19.90
2018,08,18,15,06,19.90
2018,08,18,15,07,20.00
2018,08,18,15,08,20.00
2018,08,18,15,09,20.00
2018,08,18,15,10,19.90
2018,08,18,15,11,19.80
2018,08,18,15,12,19.80
2018,08,18,15,13,19.80
2018,08,18,15,14,19.80
2018,08,18,15,15,19.80
2018,08,18,15,16,19.80
2018,08,18,15,17,19.70
2018,08,18,15,18,19.60
2018,08,18,15,19,19.60
2018,08,18,15,20,19.50
2018,08,18,15,21,19.50
2018,08,18,15,22,19.50
2018,08,18,15,23,19.50
2018,08,18,15,24,19.60
2018,08,18,15,25,19.60
2018,08,18,15,26,19.60
2018,08,18,15,27,19.60
2018,08,18,15,28,19.60
2018,08,18,15,29,19.60
2018,08,18,15,30,19.60
2018,08,18,15,31,19.60
2018,08,18,15,32,19.60
2018,08,18,15,33,19.60
2018,08,18,15,34,19.60
2018,08,18,15,35,19.70
2018,08,18,15,36,19.70
2018,08,18,15,37,19.70
2018,08,18,15,38,19.70
2018,08,18,15,39,19.70
2018,08,18,15,40,19.60
2018,08,18,15,41,19.70
2018,08,18,15,42,19.70
2018,08,18,15,43,19.80
2018,08,18,15,44,19.80
2018,08,18,15,45,19.90
2018,08,18,15,46,19.90
2018,08,18,15,47,19.90
2018,08,18,15,48,19.90
2018,08,18,15,49,19.90
2018,08,18,15,50,19.80
2018,08,18,15,51,19.90
2018,08,18,15,52,19.90
2018,08,18,15,53,19.90
2018,08,18,15,54,19.90
2018,08,18,15,55,19.90
2018,08,18,15,56,19.80
2018,08,18,15,57,19.80
2018,08,18,15,58,19.60
2018,08,18,15,59,19.60
2018,08,18,16,00,19.70
2018,08,18,16,01,19.70
2018,08,18,16,02,19.80
2018,08,18,16,03,19.80
2018,08,18,16,04,19.90
2018,08,18,16,05,19.90
2018,08,18,16,06,19.90
2018,08,18,16,07,19.70
2018,08,18,16,08,19.60
2018,08,18,16,09,19.50
2018,08,18,16,10,19.40
2018,08,18,16,11,19.40
2018,08,18,16,12,19.40
2018,08,18,16,13,19.40
2018,08,18,16,14,19.30
2018,08,18,16,15,19.20
2018,08,18,16,16,19.20
2018,08,18,16,17,19.10
2018,08,18,16,18,19.10
2018,08,18,16,19,19.10
2018,08,18,16,20,19.10
2018,08,18,16,21,19.00
2018,08,18,16,22,18.90
2018,08,18,16,23,18.90
2018,08,18,16,24,19.00
2018,08,18,16,25,19.10
2018,08,18,16,26,19.10
2018,08,18,16,27,19.10
2018,08,18,16,28,19.10
2018,08,18,16,29,19.10
2018,08,18,16,30,19.00
2018,08,18,16,31,18.90
2018,08,18,16,32,18.70
2018,08,18,16,33,18.60
2018,08,18,16,34,18.50
2018,08,18,16,35,18.50
2018,08,18,16,36,18.40
2018,08,18,16,37,18.30
2018,08,18,16,38,18.30
2018,08,18,16,39,18.30
2018,08,18,16,40,18.20
2018,08,18,16,41,18.20
2018,08,18,16,42,18.10
2018,08,18,16,43,18.10
2018,08,18,16,44,18.10
2018,08,18,16,45,18.10
2018,08,18,16,46,18.20
2018,08,18,16,47,18.30
2018,08,18,16,48,18.30
2018,08,18,16,49,18.30
2018,08,18,16,50,18.30
2018,08,18,16,51,18.20
2018,08,18,16,52,18.00
2018,08,18,16,53,17.90
2018,08,18,16,54,17.80
2018,08,18,16,55,17.60
2018,08,18,16,56,17.50
2018,08,18,16,57,17.40
2018,08,18,16,58,17.20
2018,08,18,16,59,17.20
2018,08,18,17,00,17.10
2018,08,18,17,01,17.10
2018,08,18,17,02,17.20
2018,08,18,17,03,17.20
2018,08,18,17,04,17.20
2018,08,18,17,05,17.10
2018,08,18,17,06,17.00
2018,08,18,17,07,17.00
2018,08,18,17,08,16.90
2018,08,18,17,09,16.80
2018,08,18,17,10,16.80
2018,08,18,17,11,16.70
2018,08,18,17,12,16.70
2018,08,18,17,13,16.70
2018,08,18,17,14,16.70
2018,08,18,17,15,16.70
2018,08,18,17,16,16.70
2018,08,18,17,17,16.70
2018,08,18,17,18,16.60
2018,08,18,17,19,16.50
2018,08,18,17,20,16.50
2018,08,18,17,21,16.40
2018,08,18,17,22,16.30
2018,08,18,17,23,16.20
2018,08,18,17,24,16.20
2018,08,18,17,25,16.10